Location: Unspecified
(52.4292°N, 19.3359°E)
Time: 00:51:43
(UTC+02:00)

SR - Pass Details

Date: 05 June 2024
Orbit: 580 x 858 km, 66.7° (Epoch: 12 June)

Event Time Altitude Azimuth Distance (km) Brightness Sun altitude
Rises 00:54:21 0° 309° (NW) 2,839 ? -14.9°
Reaches altitude 10° 00:57:20 10° 288° (WNW) 1,911 ? -14.9°
Maximum altitude 00:59:53 16° 251° (WSW) 1,563 ? -14.9°
Enters shadow 01:00:57 14° 233° (SW) 1,625 ? -14.9°
Drops below altitude 10° 01:02:25 10° 213° (SSW) 1,894 - -14.9°
Sets 01:05:22 0° 191° (SSW) 2,800 - -14.8°
